This is the latest recevied weather packets stored in our database for station/object E20YUC-1. If no packets are shown the sender has not sent any weather packets the latest 10 day(s).
| Time | Temp. | Humidity | Pressure | Rain* | Wind** | Luminosity | Snow |
|---|---|---|---|---|---|---|---|
| 1787646642 | 35° C | 56% | 993.6 hPa | 0 mm | 1.34 m/s, 22° | - | - |
| 1787646341 | 35° C | 56% | 993.7 hPa | 0 mm | 3.58 m/s, 0° | - | - |
| 1787646041 | 35° C | 55% | 993.7 hPa | 0 mm | 7.15 m/s, 22° | - | - |
| 1787645743 | 35° C | 55% | 994 hPa | 0 mm | 4.02 m/s, 22° | - | - |
| 1787645441 | 35.56° C | 55% | 994.1 hPa | 0 mm | 4.02 m/s, 0° | - | - |
| 1787645143 | 35.56° C | 55% | 994.1 hPa | 0 mm | 7.6 m/s, 0° | - | - |
| 1787644841 | 35.56° C | 55% | 994.2 hPa | 0 mm | 4.02 m/s, 0° | - | - |
| 1787644541 | 35.56° C | 55% | 994.2 hPa | 0 mm | 11.62 m/s, 0° | - | - |
| 1787644243 | 35.56° C | 56% | 994.1 hPa | 0 mm | 4.02 m/s, 0° | - | - |
| 1787643641 | 35.56° C | 56% | 994.1 hPa | 0 mm | 4.47 m/s, 0° | - | - |
| 1787643041 | 35° C | 56% | 994.1 hPa | 0 mm | 4.47 m/s, 0° | - | - |
| 1787642743 | 35° C | 56% | 994.3 hPa | 0 mm | 4.92 m/s, 0° | - | - |
| 1787642441 | 35° C | 57% | 994.2 hPa | 0 mm | 2.68 m/s, 0° | - | - |
| 1787642141 | 35° C | 56% | 994.4 hPa | 0 mm | 7.6 m/s, 0° | - | - |
| 1787641841 | 35° C | 57% | 994.4 hPa | 0 mm | 5.36 m/s, 0° | - | - |
| 1787641541 | 35° C | 57% | 994.6 hPa | 0 mm | 8.94 m/s, 0° | - | - |
| 1787632018 | 33.89° C | 60% | 996.4 hPa | 0 mm | 2.68 m/s, 0° | - | - |
| 1787628868 | 32.78° C | 63% | 996.2 hPa | 0 mm | 4.47 m/s, 0° | - | - |
| 1787628266 | 32.78° C | 64% | 996.2 hPa | 0 mm | 4.02 m/s, 0° | - | - |
| 1787627967 | 32.22° C | 64% | 996.1 hPa | 0 mm | 0 m/s | - | - |
| 1787627668 | 32.22° C | 65% | 996.1 hPa | 0 mm | 0.89 m/s, 0° | - | - |
| 1787627368 | 32.22° C | 66% | 996.1 hPa | 0 mm | 1.34 m/s, 0° | - | - |
| 1787627073 | 32.22° C | 66% | 996 hPa | 0 mm | 0 m/s | - | - |
| 1787626766 | 31.67° C | 66% | 996.2 hPa | 0 mm | 0.89 m/s, 0° | - | - |
| 1787626466 | 31.67° C | 66% | 996 hPa | 0 mm | 4.02 m/s, 0° | - | - |
* Rain latest hour (hover to see other rain measurements)
** Current wind speed in m/s (hover to see current wind gust speed)